When you browse on this site, cookies collect data to enhance your experience and personalize the content and advertising you see.
Visit our Privacy Policy to learn more. By continuing to use the site, you agree to this use of cookies and data.
  • în România
  • Lista ţărilor
  • Pe 7 zile
  • Temperatura apei
  • Hartă satelitară
  • Meteo pe hartă
  • Widget-uri
  • user-avatar
    Intrare

    Meteo pe oră la Gulbarga

    Astăzi, 22 Aprilie, Luni

    Timp Temperatura Precipitaţii Vânt Presiune Umiditate
    00:00 +39°C° 0 mm 3 m/s 716 mmHg 14%
    01:00 +38°C° 0 mm 3 m/s 716 mmHg 16%
    02:00 +37°C° 0 mm 4 m/s 715 mmHg 18%
    03:00 +37°C° 0 mm 4 m/s 715 mmHg 18%
    04:00 +37°C° 0 mm 5 m/s 716 mmHg 19%
    05:00 +36°C° 0 mm 6 m/s 716 mmHg 21%
    06:00 +38°C° 0 mm 7 m/s 716 mmHg 19%
    07:00 +38°C° 0 mm 7 m/s 717 mmHg 16%
    08:00 +39°C° 0 mm 8 m/s 717 mmHg 13%
    09:00 +40°C° 0 mm 7 m/s 717 mmHg 13%
    10:00 +42°C° 0 mm 6 m/s 717 mmHg 13%
    11:00 +44°C° 0 mm 6 m/s 718 mmHg 12%
    12:00 +44°C° 0 mm 6 m/s 717 mmHg 12%
    13:00 +43°C° 0 mm 5 m/s 717 mmHg 12%
    14:00 +45°C° 0 mm 5 m/s 716 mmHg 12%
    15:00 +43°C° 0 mm 5 m/s 716 mmHg 12%
    16:00 +43°C° 0 mm 5 m/s 716 mmHg 12%
    17:00 +42°C° 0 mm 5 m/s 715 mmHg 16%
    18:00 +41°C° 0 mm 5 m/s 716 mmHg 18%
    19:00 +41°C° 0 mm 5 m/s 716 mmHg 19%
    20:00 +40°C° 0 mm 5 m/s 716 mmHg 21%
    21:00 +40°C° 0 mm 4 m/s 716 mmHg 20%
    22:00 +38°C° 0 mm 4 m/s 717 mmHg 20%
    23:00 +38°C° 0 mm 3 m/s 717 mmHg 20%

    Mâine, 23 Aprilie, Marţi

    Timp Temperatura Precipitaţii Vânt Presiune Umiditate
    00:00 +37°C° 0 mm 3 m/s 717 mmHg 22%
    01:00 +36°C° 0 mm 3 m/s 717 mmHg 23%
    02:00 +36°C° 0 mm 3 m/s 716 mmHg 25%
    03:00 +35°C° 0 mm 3 m/s 717 mmHg 29%
    04:00 +35°C° 0 mm 4 m/s 717 mmHg 33%
    05:00 +34°C° 0 mm 5 m/s 717 mmHg 36%
    06:00 +35°C° 0 mm 5 m/s 717 mmHg 38%
    07:00 +35°C° 0 mm 5 m/s 718 mmHg 39%
    08:00 +36°C° 0 mm 5 m/s 719 mmHg 41%
    09:00 +37°C° 0 mm 4 m/s 719 mmHg 35%
    10:00 +38°C° 0 mm 4 m/s 719 mmHg 30%
    11:00 +40°C° 0 mm 3 m/s 719 mmHg 25%
    12:00 +40°C° 0 mm 2 m/s 718 mmHg 23%
    13:00 +40°C° 0 mm 2 m/s 718 mmHg 22%
    14:00 +40°C° 0 mm 2 m/s 717 mmHg 20%
    15:00 +40°C° 0.1 mm 2 m/s 717 mmHg 21%
    16:00 +39°C° 0.1 mm 2 m/s 717 mmHg 22%
    17:00 +39°C° 0.1 mm 3 m/s 716 mmHg 23%
    18:00 +38°C° 0 mm 3 m/s 717 mmHg 24%
    19:00 +38°C° 0 mm 3 m/s 717 mmHg 25%
    20:00 +38°C° 0 mm 3 m/s 717 mmHg 26%
    21:00 +38°C° 0 mm 3 m/s 718 mmHg 25%
    22:00 +37°C° 0 mm 2 m/s 718 mmHg 25%
    23:00 +37°C° 0 mm 2 m/s 718 mmHg 24%

    Poimâine, 24 Aprilie, Miercuri

    Timp Temperatura Precipitaţii Vânt Presiune Umiditate
    00:00 +36°C° 0 mm 2 m/s 718 mmHg 24%
    01:00 +35°C° 0 mm 1 m/s 717 mmHg 25%
    02:00 +34°C° 0 mm 1 m/s 717 mmHg 25%
    03:00 +35°C° 0 mm 2 m/s 717 mmHg 27%
    04:00 +34°C° 0 mm 2 m/s 717 mmHg 28%
    05:00 +34°C° 0 mm 3 m/s 717 mmHg 30%
    06:00 +35°C° 0 mm 3 m/s 718 mmHg 30%
    07:00 +36°C° 0 mm 4 m/s 719 mmHg 30%
    08:00 +37°C° 0 mm 5 m/s 720 mmHg 30%
    09:00 +38°C° 0 mm 4 m/s 719 mmHg 27%
    10:00 +40°C° 0 mm 4 m/s 719 mmHg 24%
    11:00 +42°C° 0 mm 3 m/s 719 mmHg 21%
    12:00 +41°C° 0 mm 2 m/s 718 mmHg 19%
    13:00 +41°C° 0 mm 1 m/s 718 mmHg 17%
    14:00 +38°C° 0 mm 0 m/s 717 mmHg 16%
    15:00 +41°C° 0 mm 1 m/s 717 mmHg 16%
    16:00 +41°C° 0 mm 2 m/s 716 mmHg 16%
    17:00 +41°C° 0 mm 2 m/s 716 mmHg 16%
    18:00 +42°C° 0 mm 3 m/s 716 mmHg 16%
    19:00 +40°C° 0 mm 3 m/s 717 mmHg 17%
    20:00 +41°C° 0 mm 4 m/s 717 mmHg 17%
    21:00 +41°C° 0 mm 4 m/s 717 mmHg 17%
    22:00 +40°C° 0 mm 3 m/s 717 mmHg 16%
    23:00 +40°C° 0 mm 3 m/s 718 mmHg 16%

    25 Aprilie, Joi

    Timp Temperatura Precipitaţii Vânt Presiune Umiditate
    00:00 +40°C° 0 mm 4 m/s 717 mmHg 17%
    01:00 +38°C° 0 mm 4 m/s 717 mmHg 19%
    02:00 +37°C° 0 mm 4 m/s 716 mmHg 20%
    03:00 +36°C° 0 mm 4 m/s 716 mmHg 23%
    04:00 +35°C° 0 mm 4 m/s 717 mmHg 25%
    05:00 +35°C° 0 mm 4 m/s 717 mmHg 27%
    06:00 +36°C° 0 mm 4 m/s 718 mmHg 25%
    07:00 +37°C° 0 mm 5 m/s 718 mmHg 22%
    08:00 +39°C° 0 mm 6 m/s 719 mmHg 19%
    09:00 +41°C° 0 mm 5 m/s 719 mmHg 18%
    10:00 +42°C° 0 mm 5 m/s 719 mmHg 16%
    11:00 +43°C° 0 mm 4 m/s 719 mmHg 14%
    12:00 +44°C° 0 mm 3 m/s 718 mmHg 13%
    13:00 +45°C° 0 mm 2 m/s 717 mmHg 12%
    14:00 +44°C° 0 mm 1 m/s 717 mmHg 11%
    15:00 +44°C° 0 mm 1 m/s 716 mmHg 11%
    16:00 +44°C° 0 mm 1 m/s 716 mmHg 11%
    17:00 +40°C° 0 mm 0 m/s 716 mmHg 10%
    18:00 +40°C° 0 mm 0 m/s 716 mmHg 11%
    19:00 +43°C° 0 mm 1 m/s 716 mmHg 11%
    20:00 +43°C° 0 mm 1 m/s 717 mmHg 11%
    21:00 +42°C° 0 mm 2 m/s 717 mmHg 12%
    22:00 +43°C° 0 mm 3 m/s 717 mmHg 13%
    23:00 +42°C° 0 mm 4 m/s 717 mmHg 13%

    26 Aprilie, Vineri

    Timp Temperatura Precipitaţii Vânt Presiune Umiditate
    00:00 +41°C° 0 mm 4 m/s 716 mmHg 15%
    01:00 +40°C° 0 mm 5 m/s 716 mmHg 17%
    02:00 +39°C° 0 mm 6 m/s 715 mmHg 19%
    03:00 +37°C° 0 mm 5 m/s 715 mmHg 20%
    04:00 +37°C° 0 mm 5 m/s 716 mmHg 22%
    05:00 +36°C° 0 mm 4 m/s 716 mmHg 23%
    06:00 +37°C° 0 mm 4 m/s 716 mmHg 22%
    07:00 +40°C° 0 mm 4 m/s 717 mmHg 21%
    08:00 +41°C° 0 mm 4 m/s 718 mmHg 19%
    09:00 +42°C° 0 mm 4 m/s 718 mmHg 17%
    10:00 +43°C° 0 mm 4 m/s 718 mmHg 15%
    11:00 +44°C° 0 mm 4 m/s 718 mmHg 14%
    12:00 +44°C° 0 mm 3 m/s 717 mmHg 13%
    13:00 +45°C° 0 mm 2 m/s 716 mmHg 12%
    14:00 +45°C° 0 mm 2 m/s 715 mmHg 12%
    15:00 +44°C° 0 mm 1 m/s 715 mmHg 11%
    16:00 +44°C° 0 mm 1 m/s 715 mmHg 11%
    17:00 +44°C° 0 mm 1 m/s 715 mmHg 11%
    18:00 +45°C° 0 mm 2 m/s 715 mmHg 11%
    19:00 +45°C° 0 mm 2 m/s 716 mmHg 11%
    20:00 +44°C° 0 mm 3 m/s 716 mmHg 12%
    21:00 +44°C° 0 mm 4 m/s 716 mmHg 13%
    22:00 +43°C° 0 mm 4 m/s 717 mmHg 13%
    23:00 +43°C° 0 mm 5 m/s 717 mmHg 14%

    27 Aprilie, Sâmbătă

    Timp Temperatura Precipitaţii Vânt Presiune Umiditate
    00:00 +42°C° 0 mm 4 m/s 716 mmHg 14%
    01:00 +41°C° 0 mm 4 m/s 716 mmHg 15%
    02:00 +40°C° 0 mm 3 m/s 715 mmHg 15%
    03:00 +39°C° 0 mm 3 m/s 715 mmHg 20%
    04:00 +38°C° 0 mm 2 m/s 715 mmHg 24%
    05:00 +36°C° 0 mm 2 m/s 715 mmHg 29%
    06:00 +37°C° 0 mm 2 m/s 716 mmHg 28%
    07:00 +38°C° 0 mm 2 m/s 717 mmHg 27%
    08:00 +39°C° 0 mm 2 m/s 718 mmHg 25%
    09:00 +41°C° 0 mm 2 m/s 717 mmHg 22%
    10:00 +42°C° 0 mm 1 m/s 717 mmHg 19%
    11:00 +43°C° 0 mm 1 m/s 717 mmHg 16%
    12:00 +44°C° 0 mm 1 m/s 716 mmHg 15%
    13:00 +44°C° 0 mm 1 m/s 715 mmHg 13%
    14:00 +44°C° 0 mm 1 m/s 714 mmHg 12%
    15:00 +46°C° 0 mm 2 m/s 714 mmHg 12%
    16:00 +46°C° 0 mm 2 m/s 714 mmHg 12%
    17:00 +46°C° 0 mm 3 m/s 714 mmHg 11%
    18:00 +47°C° 0 mm 4 m/s 715 mmHg 12%
    19:00 +45°C° 0 mm 4 m/s 715 mmHg 13%
    20:00 +46°C° 0 mm 5 m/s 716 mmHg 13%
    21:00 +44°C° 0 mm 4 m/s 716 mmHg 14%
    22:00 +44°C° 0 mm 4 m/s 716 mmHg 14%
    23:00 +43°C° 0 mm 3 m/s 716 mmHg 15%
    Arată mai mult